Flag for Canada Weather past 2 weeks in Saint John, New Brunswick, Canada

Now
59 °F

Clear.


Feels Like: 57 °F
Forecast: 53 / 70 °F
Wind: 9 mph from Northeast

Location: Saint John

Current Time: Sep 3, 2015 at 11:31:58 PM

Latest Report: Sep 3, 2015 at 11:00 PM


Visibility: 15 mi

Pressure: 29.98 "Hg

Humidity: 77%

Dew point: 52 °F

Location of Saint JohnLocation

Historic Weather in Saint John — Graph

°F

Saint John temperature yesterday

Maximum temperature yesterday: 73 °F (at 5:00 PM)
Minimum temperature yesterday: 46 °F (at 4:00 AM)
Average temperature yesterday: 60 °F

Past Weeks' High & Low Weather Summary

 TemperatureHumidityPressure
High82 °F (Sep 3, 2:00 PM)100% (Aug 19, 10:00 PM)30.23 "Hg (Aug 19, 10:00 PM)
Low46 °F (Aug 29, 6:00 AM)37% (Sep 3, 3:00 PM)29.70 "Hg (Aug 31, 8:00 PM)
Average67 °F86%30.00 "Hg
* Reported Aug 19 10:00 PM — Sep 3 10:00 PM, Saint John, Weather by CustomWeather, © 2015

Note: Actual official high and low records may vary slightly from our data, if they occured in-between our weather recording intervals... More about our weather records

Advertising

Saint John weather history for previous 24 hours

 ConditionsComfort  
Time TempWeatherWind HumidityBarometerVisibility
10:00 PM
Thu, Sep 3
61 °FPassing clouds.7 mph72%29.95 "Hg15 mi
9:00 PM66 °FPassing clouds.8 mph60%29.92 "Hg15 mi
8:00 PM70 °FScattered clouds.7 mph50%29.88 "Hg15 mi
7:00 PM75 °FPassing clouds.8 mph41%29.85 "Hg15 mi
6:00 PM81 °FPassing clouds.14 mph37%29.83 "Hg15 mi
5:00 PM82 °FPassing clouds.13 mph37%29.82 "Hg15 mi
4:00 PM82 °FPassing clouds.13 mph42%29.81 "Hg15 mi
3:00 PM82 °FScattered clouds.20 mph37%29.81 "Hg15 mi
2:00 PM82 °FScattered clouds.9 mph51%29.81 "Hg15 mi
1:00 PM81 °FScattered clouds.10 mph58%29.82 "Hg15 mi
12:00 PM79 °FScattered clouds.10 mph65%29.83 "Hg15 mi
11:00 AM77 °FBroken clouds.7 mph74%29.81 "Hg15 mi
10:00 AM75 °FPartly sunny.8 mph78%29.80 "Hg12 mi
9:00 AM66 °FBroken clouds.No wind94%29.81 "Hg10 mi
8:00 AM61 °FBroken clouds.No wind94%29.80 "Hg15 mi
7:00 AM55 °FPassing clouds.No wind100%29.79 "Hg8 mi
6:00 AM57 °FPassing clouds.No wind100%29.78 "Hg15 mi
5:00 AM55 °FPassing clouds.2 mph94%29.78 "Hg15 mi
4:00 AM55 °FPassing clouds.2 mph100%29.78 "Hg15 mi
3:00 AM55 °FPassing clouds.No wind100%29.79 "Hg15 mi
2:00 AM57 °FPassing clouds.No wind94%29.80 "Hg15 mi
1:00 AM57 °FPassing clouds.2 mph94%29.81 "Hg15 mi
12:00 AM57 °FClear.2 mph100%29.82 "Hg15 mi
11:00 PM
Wed, Sep 2
57 °FPassing clouds.3 mph100%29.82 "Hg15 mi
Weather by CustomWeather, © 2015

See weather overviewHow to use our weather pages